Flight Track Log - Related Links

Times and Time Zones

All times are in EDT time to prevent confusion due to time zone crossing. See the SKQ45 flight status page for this flight to view local times or setup timezone preferences in your user account.

Time Position Orientation Groundspeed Altitude Reporting Facility
EDT Latitude Longitude Course Direction KTS MPH feet Rate Location/Type
Wed 11:09:41 PM 37.0525 -88.7428 354° North 250 288 2,300  Level Memphis Center
Wed 11:10:41 PM 37.1006 -88.7494 354° North 149 171 4,100 1,750 Climbing Memphis Center
Wed 11:11:41 PM 37.1386 -88.7853 323° Northwest 123 142 5,800 1,550 Climbing Memphis Center
Wed 11:12:41 PM 37.1786 -88.8314 317° Northwest 151 174 7,200 1,600 Climbing Memphis Center
Wed 11:13:41 PM 37.2189 -88.8747 319° Northwest 169 194 9,000 1,400 Climbing Memphis Center
Wed 11:14:41 PM 37.2547 -88.9236 313° West 183 211 10,000 309 Climbing Memphis Center
Wed 11:16:36 PM 37.3394 -89.0333 314° West 237 273 9,900  Descending Kansas City Center
Wed 11:17:36 PM 37.3989 -89.0850 325° Northwest 257 296 10,000 50 Climbing Kansas City Center
Wed 11:18:37 PM 37.4556 -89.1397 323° Northwest 256 295 10,000 -48 Level Kansas City Center
Wed 11:19:40 PM 37.5111 -89.1919 323° Northwest 252 290 9,900 -49 Descending Kansas City Center
Wed 11:20:40 PM 37.5681 -89.2436 324° Northwest 252 290 9,900  Level Kansas City Center
Wed 11:21:41 PM 37.6244 -89.2969 323° Northwest 253 291 9,900  Level Kansas City Center
Wed 11:22:42 PM 37.6806 -89.3500 323° Northwest 253 291 9,900  Level Kansas City Center
Wed 11:23:43 PM 37.7397 -89.4067 323° Northwest 256 295 9,900  Level Kansas City Center
Wed 11:24:44 PM 37.7969 -89.4592 324° Northwest 255 293 9,900 49 Level Kansas City Center
Wed 11:25:45 PM 37.8589 -89.5186 323° Northwest 258 297 10,000  Climbing Kansas City Center
Wed 11:26:46 PM 37.9156 -89.5706 324° Northwest 254 292 9,900 -49 Descending Kansas City Center
Wed 11:27:47 PM 37.9733 -89.6242 324° Northwest 256 295 9,900 -47 Level Kansas City Center
Wed 11:28:54 PM 38.0356 -89.6261 359° North 258 297 9,800 -138 Descending FAA TRACON SMA TRACON (SMA)
Wed 11:29:14 PM 38.0578 -89.6464 324° Northwest 258 297 9,700 -146 Descending FAA TRACON SMA TRACON (SMA)
Wed 11:29:35 PM 38.0742 -89.6650 318° Northwest 257 296 9,700 150 Level FAA TRACON SMA TRACON (SMA)
Wed 11:29:54 PM 38.0922 -89.6811 325° Northwest 258 297 9,800 154 Climbing FAA TRACON SMA TRACON (SMA)
Wed 11:30:14 PM 38.1147 -89.7017 324° Northwest 258 297 9,800  Level FAA TRACON SMA TRACON (SMA)
Wed 11:30:35 PM 38.1317 -89.7189 321° Northwest 256 295 9,800  Level FAA TRACON SMA TRACON (SMA)
Wed 11:30:54 PM 38.1500 -89.7353 325° Northwest 258 297 9,800 -154 Level FAA TRACON SMA TRACON (SMA)
Wed 11:31:14 PM 38.1717 -89.7572 321° Northwest 258 297 9,700 -146 Descending FAA TRACON SMA TRACON (SMA)
Wed 11:31:35 PM 38.1889 -89.7750 321° Northwest 258 297 9,700 150 Level FAA TRACON SMA TRACON (SMA)
Wed 11:31:54 PM 38.2067 -89.7914 324° Northwest 257 296 9,800 154 Climbing FAA TRACON SMA TRACON (SMA)
Wed 11:32:14 PM 38.2278 -89.8131 321° Northwest 255 293 9,800  Level FAA TRACON SMA TRACON (SMA)
Wed 11:32:35 PM 38.2453 -89.8292 324° Northwest 251 289 9,800 150 Level FAA TRACON SMA TRACON (SMA)
Wed 11:32:54 PM 38.2622 -89.8461 322° Northwest 251 289 9,900 -154 Climbing FAA TRACON SMA TRACON (SMA)
Wed 11:33:14 PM 38.2806 -89.8700 314° West 246 283 9,700 -732 Descending FAA TRACON SMA TRACON (SMA)
Wed 11:33:35 PM 38.2933 -89.8911 308° West 244 281 9,400 -732 Descending FAA TRACON SMA TRACON (SMA)
Wed 11:33:55 PM 38.3061 -89.9122 308° West 249 287 9,200 -769 Descending FAA TRACON SMA TRACON (SMA)
Wed 11:34:14 PM 38.3219 -89.9392 307° West 249 287 8,900 -923 Descending FAA TRACON SMA TRACON (SMA)
Wed 11:34:34 PM 38.3342 -89.9608 306° West 247 284 8,600 -878 Descending FAA TRACON SMA TRACON (SMA)
Wed 11:34:55 PM 38.3472 -89.9822 308° West 247 284 8,300 -732 Descending FAA TRACON SMA TRACON (SMA)
Wed 11:35:15 PM 38.3628 -90.0086 307° West 244 281 8,100 -750 Descending FAA TRACON SMA TRACON (SMA)
Wed 11:35:35 PM 38.3756 -90.0300 307° West 244 281 7,800 -750 Descending FAA TRACON SMA TRACON (SMA)
Wed 11:35:55 PM 38.3886 -90.0508 309° West 245 282 7,600 -769 Descending FAA TRACON SMA TRACON (SMA)
Wed 11:36:14 PM 38.4047 -90.0769 308° West 246 283 7,300 -769 Descending FAA TRACON SMA TRACON (SMA)
Wed 11:36:34 PM 38.4178 -90.0983 308° West 246 283 7,100 -732 Descending FAA TRACON SMA TRACON (SMA)
Wed 11:36:55 PM 38.4308 -90.1197 308° West 246 283 6,800 -900 Descending FAA TRACON SMA TRACON (SMA)
Wed 11:37:14 PM 38.4478 -90.1456 310° West 246 283 6,500 -769 Descending FAA TRACON SMA TRACON (SMA)
Wed 11:37:34 PM 38.4611 -90.1667 309° West 248 285 6,300 -732 Descending FAA TRACON SMA TRACON (SMA)
Wed 11:37:55 PM 38.4744 -90.1878 309° West 248 285 6,000 -750 Descending FAA TRACON SMA TRACON (SMA)
Wed 11:38:14 PM 38.4908 -90.2136 309° West 245 282 5,800 -308 Descending FAA TRACON SMA TRACON (SMA)
Wed 11:38:34 PM 38.5039 -90.2336 310° West 240 276 5,800 146 Level FAA TRACON SMA TRACON (SMA)
Wed 11:38:55 PM 38.5164 -90.2533 309° West 233 268 5,900 -293 Climbing FAA TRACON SMA TRACON (SMA)
Wed 11:39:15 PM 38.5322 -90.2778 310° West 231 266 5,600 -923 Descending FAA TRACON SMA TRACON (SMA)
Wed 11:39:34 PM 38.5456 -90.2981 310° West 240 276 5,300 -750 Descending FAA TRACON SMA TRACON (SMA)
Wed 11:39:55 PM 38.5597 -90.3189 311° West 248 285 5,100 -732 Descending FAA TRACON SMA TRACON (SMA)
Wed 11:40:15 PM 38.5769 -90.3458 309° West 254 292 4,800 -923 Descending FAA TRACON SMA TRACON (SMA)
Wed 11:40:34 PM 38.5914 -90.3672 311° West 257 296 4,500 -750 Descending FAA TRACON SMA TRACON (SMA)
Wed 11:40:55 PM 38.6058 -90.3892 310° West 260 299 4,300 -878 Descending FAA TRACON SMA TRACON (SMA)
Wed 11:41:15 PM 38.6236 -90.4156 311° West 256 295 3,900 -769 Descending FAA TRACON SMA TRACON (SMA)
Wed 11:41:34 PM 38.6372 -90.4358 311° West 247 284 3,800  Descending FAA TRACON SMA TRACON (SMA)
Wed 11:41:54 PM 38.6508 -90.4558 311° West 243 280 3,900 146 Climbing FAA TRACON SMA TRACON (SMA)
Wed 11:42:15 PM 38.6647 -90.4758 312° West 242 278 3,900  Level FAA TRACON SMA TRACON (SMA)
Wed 11:42:34 PM 38.6822 -90.5006 312° West 243 280 3,900  Level FAA TRACON SMA TRACON (SMA)
Wed 11:42:54 PM 38.6978 -90.5189 317° Northwest 248 285 3,900 -146 Level FAA TRACON SMA TRACON (SMA)
Wed 11:43:15 PM 38.7192 -90.5267 344° North 264 304 3,800 -600 Descending FAA TRACON SMA TRACON (SMA)
Wed 11:43:34 PM 38.7464 -90.5256 North 257 296 3,500 -900 Descending FAA TRACON SMA TRACON (SMA)
Wed 11:43:55 PM 38.7656 -90.5192 15° North 242 278 3,200 -732 Descending FAA TRACON SMA TRACON (SMA)
Wed 11:44:15 PM 38.7828 -90.5094 24° Northeast 224 258 3,000 -154 Descending FAA TRACON SMA TRACON (SMA)
Wed 11:44:34 PM 38.8022 -90.4986 23° Northeast 201 231 3,100 150 Climbing FAA TRACON SMA TRACON (SMA)
Wed 11:44:55 PM 38.8178 -90.4906 22° Northeast 194 223 3,100  Level FAA TRACON SMA TRACON (SMA)
Wed 11:45:15 PM 38.8281 -90.4756 49° Northeast 194 223 3,100  Level FAA TRACON SMA TRACON (SMA)
Wed 11:45:35 PM 38.8242 -90.4569 105° East 166 191 3,100 -150 Level FAA TRACON SMA TRACON (SMA)
Wed 11:45:55 PM 38.8183 -90.4447 121° Southeast 133 153 3,000 -150 Descending FAA TRACON SMA TRACON (SMA)
Wed 11:46:15 PM 38.8133 -90.4344 122° Southeast 115 132 3,000 -300 Level FAA TRACON SMA TRACON (SMA)
Wed 11:46:35 PM 38.8069 -90.4225 124° Southeast 106 122 2,800 -462 Descending FAA TRACON SMA TRACON (SMA)
Wed 11:46:54 PM 38.8014 -90.4133 128° Southeast 105 121 2,700 -154 Descending FAA TRACON SMA TRACON (SMA)
Wed 11:47:14 PM 38.7958 -90.4036 126° Southeast 108 124 2,700  Level FAA TRACON SMA TRACON (SMA)
Wed 11:47:35 PM 38.7894 -90.3914 124° Southeast 108 124 2,700 -300 Level FAA TRACON SMA TRACON (SMA)
Wed 11:47:54 PM 38.7842 -90.3811 123° Southeast 110 127 2,500 -615 Descending FAA TRACON SMA TRACON (SMA)
Wed 11:48:14 PM 38.7786 -90.3714 126° Southeast 111 128 2,300 -732 Descending FAA TRACON SMA TRACON (SMA)
Wed 11:48:35 PM 38.7719 -90.3589 124° Southeast 111 128 2,000 -900 Descending FAA TRACON SMA TRACON (SMA)
Wed 11:48:54 PM 38.7664 -90.3486 125° Southeast 114 131 1,700 -923 Descending FAA TRACON SMA TRACON (SMA)
Wed 11:49:14 PM 38.7608 -90.3383 125° Southeast 112 129 1,400 -1,024 Descending FAA TRACON SMA TRACON (SMA)
Wed 11:49:35 PM 38.7558 -90.3283 123° Southeast 109 125 1,000 -1,050 Descending FAA TRACON SMA TRACON (SMA)
Wed 11:49:54 PM 38.7506 -90.3186 125° Southeast 108 124 700 -600 Descending FAA TRACON SMA TRACON (SMA)
Wed 11:50:15 PM 38.7469 -90.3114 123° Southeast 105 121 600 -286 Descending FAA TRACON SMA TRACON (SMA)

Login

Don't have an account? Register now (free) for customized features, flight alerts, and more!